DW4554 Weather Reports


Display with metric or nautical units.
time (UTC)temp
F
wind
direction
speed
MPH
gust
MPH
rain 1hr
in
rain 24hr
in
rain mn
in
humidity
%
barometer
mb
20181117110452 43 13 3.0 12.0 0.00 0.00 0.00 69 1032.4
20181117105446 43 15 4.0 10.0 0.00 0.00 0.00 71 1032.6
20181117103437 42 336 0.0 6.0 0.00 0.00 0.00 73 1032.6
20181117102430 42 5 0.0 5.0 0.00 0.00 0.00 73 1032.8
20181117100508 41 33 0.0 3.0 0.00 0.00 0.00 76 1032.9
20181117095501 40 349 0.0 2.0 0.00 0.00 0.00 77 1032.9
20181117093536 39 31 1.0 6.0 0.00 0.00 0.00 80 1033.0
20181117092533 37 0 0.0 7.0 0.00 0.00 0.00 82 1033.1
20181117090522 36 66 0.0 7.0 0.00 0.00 0.00 87 1033.0
20181117085516 34 46 4.0 8.0 0.00 0.00 0.00 89 1033.0
20181117083507 33 59 0.0 1.0 0.00 0.00 0.00 91 1032.9
20181117082502 32 59 0.0 1.0 0.00 0.00 0.00 91 1032.7
20181117080452 31 26 0.0 2.0 0.00 0.00 0.00 91 1032.8
20181117075449 30 292 0.0 1.0 0.00 0.00 0.00 91 1033.0
20181117073440 29 314 0.0 0.0 0.00 0.00 0.00 91 1033.0
20181117072436 29 314 0.0 0.0 0.00 0.00 0.00 91 1033.1
20181117070523 29 313 0.0 0.0 0.00 0.00 0.00 91 1033.1
20181117065522 29 313 0.0 1.0 0.00 0.00 0.00 90 1033.2
20181117063520 29 313 0.0 0.0 0.00 0.00 0.00 91 1032.8
20181117062518 29 316 0.0 1.0 0.00 0.00 0.00 91 1032.8
20181117060507 28 0 0.0 1.0 0.00 0.00 0.00 91 1032.7
20181117055506 28 0 0.0 8.0 0.00 0.00 0.00 91 1032.6
20181117053445 28 24 0.0 2.0 0.00 0.00 0.00 90 1032.4
20181117052430 28 11 0.0 1.0 0.00 0.00 0.00 90 1032.5
20181117050433 28 41 0.0 0.0 0.00 0.00 0.00 90 1032.5
20181117045416 28 41 0.0 0.0 0.00 0.00 0.00 90 1032.5
20181117043418 29 41 0.0 0.0 0.00 0.00 0.00 90 1032.6
20181117042420 29 41 0.0 1.0 0.00 0.00 0.00 90 1032.7
20181117040422 29 41 0.0 1.0 0.00 0.00 0.00 90 1032.7
20181117035424 29 58 0.0 1.0 0.00 0.00 0.00 90 1032.8
20181117033531 30 58 0.0 0.0 0.00 0.00 0.00 90 1032.9
20181117032529 30 58 0.0 0.0 0.00 0.00 0.00 90 1033.0
20181117030517 30 71 0.0 1.0 0.00 0.00 0.00 90 1033.1
20181117025516 30 85 0.0 2.0 0.00 0.00 0.00 90 1033.0
20181117023459 30 70 0.0 0.0 0.00 0.00 0.00 90 1033.1
20181117022458 30 70 0.0 0.0 0.00 0.00 0.00 90 1033.1
20181117020449 30 64 0.0 1.0 0.00 0.00 0.00 90 1033.2
20181117015447 30 52 0.0 0.0 0.00 0.00 0.00 90 1033.0
20181117013444 31 53 0.0 2.0 0.00 0.00 0.00 90 1032.9
20181117012432 31 52 0.0 0.0 0.00 0.00 0.00 90 1033.1
20181117010430 31 52 0.0 0.0 0.00 0.00 0.00 89 1033.2
20181117005410 31 52 0.0 0.0 0.00 0.00 0.00 89 1033.2
20181117003412 32 52 0.0 0.0 0.00 0.00 0.00 89 1033.2
20181117002437 32 52 0.0 0.0 0.00 0.00 0.00 89 1033.1
20181117000501 33 52 0.0 0.0 0.00 0.00 0.00 89 1033.1
20181116235459 33 52 0.0 0.0 0.00 0.00 0.00 89 1033.0
20181116233450 34 52 0.0 1.0 0.00 0.00 0.00 90 1033.0
20181116232442 34 55 0.0 2.0 0.00 0.00 0.00 90 1033.1
20181116230434 34 65 0.0 3.0 0.00 0.00 0.00 91 1033.0
20181116225428 33 58 0.0 6.0 0.00 0.00 0.00 91 1033.1
20181116223414 33 63 0.0 1.0 0.00 0.00 0.00 90 1033.3
20181116222449 33 36 0.0 1.0 0.00 0.00 0.00 90 1033.3
20181116220500 33 292 0.0 2.0 0.00 0.00 0.00 90 1033.3
20181116215458 33 71 0.0 1.0 0.00 0.00 0.00 90 1033.3
20181116213453 33 38 0.0 0.0 0.00 0.00 0.00 89 1033.1
20181116212450 33 38 0.0 0.0 0.00 0.00 0.00 89 1033.0
20181116210442 34 38 0.0 0.0 0.00 0.00 0.00 89 1033.1
20181116205438 34 38 0.0 0.0 0.00 0.00 0.00 89 1033.1
20181116203431 34 38 0.0 0.0 0.00 0.00 0.00 88 1033.2
20181116202425 34 38 0.0 0.0 0.00 0.00 0.00 87 1033.3
20181116200422 35 38 0.0 0.0 0.00 0.00 0.00 87 1033.2
20181116195421 35 38 0.0 0.0 0.00 0.00 0.00 87 1033.3
20181116193456 36 38 0.0 1.0 0.00 0.00 0.00 87 1033.3
20181116192533 36 38 0.0 0.0 0.00 0.00 0.00 86 1033.3
20181116190525 37 38 0.0 0.0 0.00 0.00 0.00 85 1033.3
20181116185523 37 38 0.0 0.0 0.00 0.00 0.00 85 1033.3
20181116183513 38 38 0.0 0.0 0.00 0.00 0.00 84 1033.1
20181116182509 38 37 0.0 1.0 0.00 0.00 0.00 84 1032.9
20181116180456 39 35 0.0 0.0 0.00 0.00 0.00 84 1032.9
20181116175455 39 25 0.0 1.0 0.00 0.00 0.00 83 1032.9
20181116173442 40 53 0.0 0.0 0.00 0.00 0.00 83 1032.8
20181116172442 40 42 0.0 2.0 0.00 0.00 0.00 84 1032.7
20181116170434 41 57 0.0 3.0 0.00 0.00 0.00 83 1032.6
20181116165425 41 56 0.0 5.0 0.00 0.00 0.00 83 1032.7
20181116163413 41 47 0.0 1.0 0.00 0.00 0.00 82 1032.5
20181116162450 42 34 0.0 1.0 0.00 0.00 0.00 82 1032.4
20181116160510 42 73 0.0 0.0 0.00 0.00 0.00 81 1032.4
20181116155507 43 73 0.0 3.0 0.00 0.00 0.00 80 1032.4
20181116153504 44 46 0.0 1.0 0.00 0.00 0.00 79 1032.3
20181116152458 44 88 0.0 1.0 0.00 0.00 0.00 78 1032.3
20181116150452 46 24 0.0 1.0 0.00 0.00 0.00 77 1032.1
20181116145444 46 32 0.0 2.0 0.00 0.00 0.00 75 1032.0
20181116143438 48 26 0.0 1.0 0.00 0.00 0.00 73 1032.1
20181116142435 49 20 0.0 2.0 0.00 0.00 0.00 72 1032.1
20181116140427 50 24 0.0 1.0 0.00 0.00 0.00 71 1032.1
20181116135426 50 28 0.0 2.0 0.00 0.00 0.00 69 1032.1
20181116133419 51 19 0.0 2.0 0.00 0.00 0.00 69 1032.2
20181116132412 51 349 0.0 3.0 0.00 0.00 0.00 69 1032.2
20181116130525 51 33 0.0 1.0 0.00 0.00 0.00 70 1032.3
20181116125524 51 15 0.0 1.0 0.00 0.00 0.00 70 1032.3
20181116123514 51 15 0.0 1.0 0.00 0.00 0.00 68 1032.2
20181116122513 50 119 0.0 2.0 0.00 0.00 0.00 67 1032.2
20181116120504 50 231 0.0 0.0 0.00 0.00 0.00 69 1032.2
20181116115503 49 231 0.0 1.0 0.00 0.00 0.00 72 1032.3
20181116113452 49 231 0.0 0.0 0.00 0.00 0.00 74 1032.3
20181116112449 49 231 0.0 1.0 0.00 0.00 0.00 75 1032.4